Location: Bauerbach
(50.4985°N, 10.3912°E)
Time: 11:34:47
(UTC+00:00)

GEOS 3 Rocket - Pass Details

Date: 13 January 2026
Orbit: 768 x 845 km, 115.0° (Epoch: 16 February)

Event Time Altitude Azimuth Distance (km) Brightness Sun altitude
Rises 05:19:59 0° 163° (SSE) 3,299 7.2 -17.5°
Reaches altitude 10° 05:22:25 10° 171° (S) 2,385 6.3 -17.1°
Maximum altitude 05:27:12 37° 238° (WSW) 1,256 4.3 -16.4°
Enters shadow 05:29:30 25° 285° (WNW) 1,602 4.5 -16.0°
